[[{"header":{"parameterUnit":"m.s-1","parameterCategory":1,"la1":30.2991,"la2":30.254,"lo1":-89.0895,"lo2":-89.0444,"dy":0.0017,"dx":0.0017,"nx":28,"ny":28,"refTime":"2024-06-06T21:00:00:Z","depth":0,"parameterNumber":2,"parameterNumberName":"U-component_of_WINDS"},"data":[0,0,0,0,0,0,0,0,0,0,0,0,0,0,0,0,0,0,0,0,0,0,0,0,0,0,0,0,0,0,0,0,0,0,0,0,0,0,0,0,0,0,0,0,0,0,0,0,0,0,0,0,0,0,0,0,0,0,-3.1587,-3.1587,0,-3.1587,-3.1587,-3.1587,-3.1439,-3.1435,-3.1432,-3.1428,-3.1432,-3.1435,-3.1439,0,0,0,0,0,0,0,0,0,0,0,0,0,-3.1461,-3.1464,-3.1587,-3.1587,-3.1587,-3.1587,-3.1587,-3.1587,-3.144,-3.1435,-3.1431,-3.1426,-3.1431,-3.1435,-3.1439,0,0,0,0,0,0,0,0,0,0,0,0,0,-3.1494,-3.1465,-3.1587,-3.1514,-3.1507,-3.1587,-3.1587,-3.1587,-3.1441,-3.1435,-3.1429,-3.1424,-3.1429,-3.1435,-3.144,-3.1592,0,0,-3.1457,-3.146,0,0,0,0,0,0,0,0,-3.1493,-3.1499,-3.1524,-3.1519,-3.1511,-3.1507,-3.1544,-3.1589,-3.1443,-3.1466,-3.1428,-3.1421,-3.1462,-3.1464,-3.1477,-3.1592,-3.1592,-3.1458,-3.1461,-3.1464,-3.1465,0,0,0,0,0,0,0,-3.1491,-3.1498,-3.1587,-3.1525,-3.1517,-3.1481,-3.1479,-3.1552,-3.1497,-3.1464,-3.1453,-3.1455,-3.1457,-3.1472,-3.1476,-3.1592,-3.1458,-3.1463,-3.1466,-3.1468,-3.183,-3.1836,0,0,0,0,0,0,-3.1498,-3.1497,-3.1587,-3.1587,-3.1487,-3.1488,-3.1486,-3.1515,-3.1496,-3.1487,-3.146,-3.1448,-3.1466,-3.147,-3.1476,-3.1651,-3.1463,-3.1469,-3.1472,-3.1824,-3.1831,-3.1838,0,0,0,0,0,0,-3.1496,-3.1507,-3.1587,-3.1539,-3.1547,-3.1497,-3.153,-3.1518,-3.1532,-3.1493,-3.1482,-3.1485,-3.1461,-3.1468,-3.1564,-3.1649,-3.1471,-3.1476,-3.1816,-3.1826,-3.1835,-3.2004,0,0,0,0,0,0,-3.1493,-3.1507,-3.1564,-3.1542,-3.155,-3.1675,-3.1535,-3.1522,-3.1542,-3.1527,-3.1514,-3.1506,-3.1457,-3.1556,-3.1569,-3.1654,-3.1481,-3.1809,-3.1821,-3.1832,-3.199,-3.2018,-3.2041,0,0,0,0,0,-3.1489,-3.1613,-3.1568,-3.158,-3.162,-3.168,-3.1685,-3.1625,-3.155,-3.1607,-3.1581,-3.1507,-3.1638,-3.1567,-3.1581,-3.1668,-3.1803,-3.1817,-3.1831,-3.1979,-3.2012,-3.2041,0,0,0,0,0,0,-3.1648,-3.1609,-3.1558,-3.1679,-3.1684,-3.1655,-3.1724,-3.1662,-3.169,-3.1674,-3.1599,-3.1598,-3.1705,-3.1696,-3.1618,-3.1813,-3.1707,-3.1725,-3.1815,-3.1847,-3.1872,-3.1871,-3.1485,0,0,0,0,0,-3.1697,-3.1749,-3.1712,-3.1821,-3.1826,-3.1776,-3.18,-3.1753,-3.1755,-3.1757,-3.1738,-3.1745,-3.1787,-3.1816,-3.1853,-3.1989,-3.1983,-3.2056,-3.2081,-3.2102,-3.2118,-3.2187,-3.2219,-3.1884,-3.1884,-3.1884,0,0,-3.18,-3.1784,-3.1821,-3.1853,-3.1851,-3.1906,-3.1778,-3.1843,-3.1883,-3.1767,-3.1855,-3.1842,-3.1844,-3.196,-3.201,-3.1956,-3.2209,-3.212,-3.2137,-3.2141,-3.2205,-3.2237,-3.2265,-3.1894,-3.1892,-3.1891,0,0,-3.2013,-3.2007,-3.2097,-3.2098,-3.2096,-3.2061,-3.2083,-3.2064,-3.205,-3.2137,-3.2051,-3.2098,-3.2173,-3.2177,-3.219,-3.2405,-3.2337,-3.2419,-3.2552,-3.262,-3.2647,-3.267,-3.2745,-3.2773,-3.2435,-3.2435,-3.2436,0,-3.214,-3.2219,-3.2152,-3.2221,-3.2237,-3.2134,-3.2224,-3.2228,-3.224,-3.2254,-3.2193,-3.2283,-3.2278,-3.2392,-3.2445,-3.2459,-3.2481,-3.242,-3.2648,-3.2671,-3.2691,-3.2762,-3.2791,-3.2445,-3.2444,-3.2443,-3.2442,0,-3.2375,-3.2431,-3.2504,-3.2516,-3.254,-3.262,-3.2565,-3.2599,-3.255,-3.2522,-3.2612,-3.2601,-3.2633,-3.2657,-3.2611,-3.2765,-3.2731,-3.2661,-3.2552,-3.2734,-3.2799,-3.2826,-3.2459,-3.2456,-3.2453,-3.245,0,0,-3.2689,-3.2661,-3.2689,-3.2692,-3.2683,-3.2725,-3.2801,-3.2831,-3.286,-3.2872,-3.2933,-3.2998,-3.2932,-3.2946,-3.2899,-3.296,-3.3129,-3.2881,-3.288,-3.2927,-3.3297,-3.3349,-3.3382,-3.3085,-3.309,-3.3094,-3.3296,0,-3.2895,-3.302,-3.2961,-3.3093,-3.3143,-3.3046,-3.3111,-3.3113,-3.3089,-3.3129,-3.3102,-3.3149,-3.3059,-3.3067,-3.3122,-3.3097,-3.3202,-3.3082,-3.314,-3.3143,-3.3141,-3.3416,-3.3471,-3.3663,-3.3321,-3.3326,-3.3329,0,-3.3151,-3.3171,-3.3308,-3.3288,-3.3307,-3.3367,-3.3389,-3.3428,-3.3428,-3.3406,-3.3422,-3.3361,-3.3433,-3.3327,-3.3425,-3.3345,-3.3365,-3.3357,-3.3363,-3.3365,-3.3246,-3.3424,-3.3723,-3.3751,-3.3369,-3.3366,-3.3363,0,-3.3364,-3.3426,-3.3515,-3.3522,-3.3501,-3.3545,-3.3539,-3.3532,-3.3554,-3.3574,-3.3587,-3.3616,-3.3632,-3.3656,-3.3605,-3.3532,-3.3711,-3.36,-3.3694,-3.3696,-3.3735,-3.3733,-3.404,-3.3752,-3.3751,-3.3751,-3.375,0,-3.3599,-3.3686,-3.361,-3.3665,-3.376,-3.3692,-3.3788,-3.3771,-3.3767,-3.3817,-3.3736,-3.3785,-3.3714,-3.3757,-3.3718,-3.3805,-3.3813,-3.3797,-3.3785,-3.3803,-3.3805,-3.3815,-3.3799,-3.3758,-3.3757,-3.3755,-3.3754,0,-3.3853,-3.3806,-3.3896,-3.3868,-3.3864,-3.3935,-3.3911,-3.3961,-3.3931,-3.3996,-3.4007,-3.3961,-3.4006,-3.3957,-3.4,-3.3974,-3.409,-3.406,-3.409,-3.408,-3.4176,-3.4167,-3.4499,-3.4538,-3.4227,-3.423,-3.4233,0,-3.4005,-3.4069,-3.4048,-3.4075,-3.4073,-3.4118,-3.4139,-3.4075,-3.41,-3.4104,-3.4154,-3.4192,-3.4219,-3.4297,-3.4267,-3.4299,-3.4268,-3.4382,-3.4272,-3.4288,-3.4267,-3.4263,-3.4268,-3.4404,-3.4407,-3.441,-3.4413,0,-3.4279,-3.4252,-3.4284,-3.4309,-3.4336,-3.4353,-3.4363,-3.4391,-3.4324,-3.4357,-3.4401,-3.4422,-3.4465,-3.4504,-3.4527,-3.4521,-3.4456,-3.4448,-3.4471,-3.4489,-3.4503,-3.4495,-3.4149,-3.444,-3.4437,-3.4435,-3.4434,-3.4433,-3.4485,-3.4537,-3.4529,-3.4568,-3.4569,-3.4581,-3.4625,-3.4601,-3.4636,-3.4664,-3.4625,-3.4681,-3.4678,-3.4702,-3.4704,-3.4746,-3.4698,-3.4732,-3.474,-3.4749,-3.4762,-3.4498,-3.4751,-3.475,-3.4749,-3.4748,-3.4748,0,-3.4753,-3.4743,-3.4779,-3.4796,-3.4826,-3.4762,-3.477,-3.48,-3.4849,-3.4852,-3.488,-3.4931,-3.4968,-3.4941,-3.4973,-3.5012,-3.4983,-3.5022,-3.5017,-3.5017,-3.4805,-3.4781,-3.5045,-3.5045,-3.5045,-3.5045,-3.5045,-3.5044,-3.4896,-3.4979,-3.4952,-3.5035,-3.5025,-3.5077,-3.5087,-3.5098,-3.5099,-3.5159,-3.5189,-3.5171,-3.5162,-3.5191,-3.5223,-3.5214,-3.5228,-3.5278,-3.5259,-3.5061,-3.5032,-3.5004,-3.4981,-3.5282,-3.5283,-3.5466,-3.5468,-3.5469]},{"header":{"parameterUnit":"m.s-1","parameterCategory":1,"la1":30.2991,"la2":30.254,"lo1":-89.0895,"lo2":-89.0444,"dy":0.0017,"dx":0.0017,"nx":28,"ny":28,"refTime":"2024-06-06T21:00:00:Z","depth":0,"parameterNumber":3,"parameterNumberName":"V-component_of_WINDS"},"data":[0,0,0,0,0,0,0,0,0,0,0,0,0,0,0,0,0,0,0,0,0,0,0,0,0,0,0,0,0,0,0,0,0,0,0,0,0,0,0,0,0,0,0,0,0,0,0,0,0,0,0,0,0,0,0,0,0,0,-1.6098,-1.6098,0,-1.6104,-1.6104,-1.6104,-1.611,-1.611,-1.611,-1.611,-1.6115,-1.6115,-1.6115,0,0,0,0,0,0,0,0,0,0,0,0,0,-1.6089,-1.6089,-1.6098,-1.6098,-1.6098,-1.6104,-1.6104,-1.6104,-1.611,-1.611,-1.611,-1.611,-1.6115,-1.6115,-1.6115,0,0,0,0,0,0,0,0,0,0,0,0,0,-1.6094,-1.6089,-1.6098,-1.6102,-1.6102,-1.6104,-1.6104,-1.6104,-1.611,-1.611,-1.611,-1.611,-1.6115,-1.6115,-1.6115,-1.6113,0,0,-1.6115,-1.6115,0,0,0,0,0,0,0,0,-1.6093,-1.6094,-1.6101,-1.6102,-1.6102,-1.6106,-1.6103,-1.6107,-1.611,-1.6107,-1.611,-1.611,-1.6112,-1.6112,-1.6113,-1.6113,-1.6113,-1.6115,-1.6115,-1.6115,-1.6115,0,0,0,0,0,0,0,-1.6093,-1.6094,-1.6101,-1.6101,-1.6102,-1.6102,-1.6103,-1.6103,-1.6109,-1.6107,-1.6108,-1.6108,-1.6112,-1.6113,-1.6113,-1.6113,-1.6115,-1.6115,-1.6115,-1.6115,-1.611,-1.611,0,0,0,0,0,0,-1.6092,-1.6093,-1.61,-1.6101,-1.6098,-1.6102,-1.6103,-1.6105,-1.6109,-1.6109,-1.6108,-1.6109,-1.6113,-1.6113,-1.6113,-1.611,-1.6115,-1.6115,-1.6115,-1.611,-1.611,-1.611,0,0,0,0,0,0,-1.6092,-1.6093,-1.61,-1.6097,-1.6098,-1.6102,-1.6104,-1.6105,-1.6106,-1.6109,-1.611,-1.6108,-1.6113,-1.6113,-1.6113,-1.611,-1.6115,-1.6115,-1.6111,-1.611,-1.611,-1.6104,0,0,0,0,0,0,-1.6092,-1.6093,-1.6093,-1.6097,-1.6098,-1.61,-1.6104,-1.6105,-1.6106,-1.6107,-1.611,-1.611,-1.6113,-1.6112,-1.6113,-1.611,-1.6115,-1.6111,-1.611,-1.611,-1.6105,-1.6104,-1.6103,0,0,0,0,0,-1.6092,-1.6091,-1.6093,-1.6094,-1.6099,-1.61,-1.6101,-1.6104,-1.6106,-1.6106,-1.6107,-1.611,-1.611,-1.6112,-1.6113,-1.611,-1.6111,-1.6111,-1.611,-1.6105,-1.6104,-1.6103,0,0,0,0,0,0,-1.6087,-1.6092,-1.6094,-1.6095,-1.6097,-1.6101,-1.6101,-1.6103,-1.6104,-1.6105,-1.6108,-1.6109,-1.6108,-1.6109,-1.6111,-1.6108,-1.6111,-1.6111,-1.6107,-1.6106,-1.6105,-1.6105,-1.6115,0,0,0,0,0,-1.6086,-1.6088,-1.6092,-1.6093,-1.6093,-1.6097,-1.6098,-1.61,-1.6102,-1.6103,-1.6105,-1.6106,-1.6106,-1.6106,-1.6107,-1.6105,-1.6104,-1.6103,-1.6102,-1.6102,-1.6101,-1.6098,-1.6097,-1.6109,-1.6109,-1.6109,0,0,-1.6085,-1.6087,-1.6088,-1.6092,-1.6093,-1.6094,-1.6098,-1.6098,-1.6098,-1.6103,-1.6102,-1.6103,-1.6105,-1.6103,-1.6102,-1.6104,-1.6098,-1.6101,-1.6101,-1.61,-1.6098,-1.6097,-1.6096,-1.6108,-1.6108,-1.6108,0,0,-1.6082,-1.6085,-1.6085,-1.6086,-1.6088,-1.609,-1.609,-1.6093,-1.6094,-1.6094,-1.6097,-1.6096,-1.6097,-1.6097,-1.6097,-1.6092,-1.6094,-1.6092,-1.6088,-1.6085,-1.6084,-1.6083,-1.608,-1.6079,-1.6091,-1.6091,-1.6091,0,-1.6079,-1.6081,-1.6084,-1.6084,-1.6085,-1.6089,-1.6088,-1.6089,-1.6091,-1.6091,-1.6093,-1.6092,-1.6094,-1.6091,-1.609,-1.609,-1.6089,-1.6092,-1.6084,-1.6083,-1.6082,-1.6079,-1.6078,-1.6091,-1.6091,-1.6091,-1.6091,0,-1.6077,-1.6077,-1.6077,-1.6079,-1.6079,-1.6079,-1.6081,-1.6081,-1.6083,-1.6084,-1.6082,-1.6084,-1.6084,-1.6083,-1.6085,-1.608,-1.6081,-1.6083,-1.6087,-1.6081,-1.6078,-1.6077,-1.6091,-1.6091,-1.6091,-1.6091,0,0,-1.6072,-1.6075,-1.6074,-1.6074,-1.6076,-1.6077,-1.6075,-1.6075,-1.6074,-1.6075,-1.6073,-1.6073,-1.6074,-1.6074,-1.6076,-1.6074,-1.6067,-1.6076,-1.6076,-1.6073,-1.606,-1.6057,-1.6056,-1.6068,-1.6068,-1.6068,-1.6059,0,-1.6069,-1.6068,-1.607,-1.6068,-1.6067,-1.607,-1.6068,-1.6069,-1.6069,-1.6068,-1.6069,-1.6068,-1.6071,-1.607,-1.6068,-1.6069,-1.6064,-1.6069,-1.6065,-1.6065,-1.6064,-1.6055,-1.6053,-1.6044,-1.6058,-1.6058,-1.6058,0,-1.6065,-1.6065,-1.6063,-1.6063,-1.6063,-1.6062,-1.6061,-1.606,-1.606,-1.606,-1.6059,-1.6061,-1.6058,-1.6062,-1.6057,-1.606,-1.6059,-1.6058,-1.6058,-1.6057,-1.6061,-1.6053,-1.6042,-1.604,-1.6056,-1.6056,-1.6057,0,-1.6061,-1.606,-1.6058,-1.6059,-1.6059,-1.6058,-1.6058,-1.6057,-1.6056,-1.6055,-1.6054,-1.6053,-1.6052,-1.605,-1.605,-1.6053,-1.6045,-1.6049,-1.6044,-1.6044,-1.6042,-1.6042,-1.603,-1.6042,-1.6042,-1.6042,-1.6042,0,-1.6057,-1.6055,-1.6056,-1.6055,-1.6052,-1.6054,-1.6051,-1.6051,-1.605,-1.6048,-1.605,-1.6047,-1.6049,-1.6046,-1.6046,-1.6041,-1.6041,-1.604,-1.604,-1.604,-1.6039,-1.6038,-1.6038,-1.6042,-1.6042,-1.6042,-1.6042,0,-1.6051,-1.6053,-1.605,-1.605,-1.605,-1.6048,-1.6047,-1.6045,-1.6045,-1.6042,-1.6042,-1.6042,-1.6038,-1.6038,-1.6035,-1.6035,-1.6028,-1.6029,-1.6028,-1.6028,-1.6023,-1.6023,-1.6009,-1.6007,-1.6022,-1.6021,-1.6021,0,-1.6049,-1.6047,-1.6046,-1.6045,-1.6045,-1.6043,-1.6041,-1.6042,-1.6041,-1.6039,-1.6036,-1.6033,-1.6031,-1.6025,-1.6024,-1.602,-1.6021,-1.6016,-1.602,-1.6019,-1.6019,-1.6019,-1.6018,-1.6015,-1.6015,-1.6015,-1.6015,0,-1.6043,-1.6043,-1.6041,-1.6039,-1.6037,-1.6036,-1.6034,-1.6033,-1.6033,-1.6031,-1.6027,-1.6025,-1.6021,-1.6017,-1.6013,-1.6012,-1.6012,-1.6013,-1.6012,-1.6011,-1.601,-1.6009,-1.6025,-1.6014,-1.6014,-1.6014,-1.6014,-1.6014,-1.6038,-1.6036,-1.6034,-1.6032,-1.603,-1.6028,-1.6026,-1.6025,-1.6022,-1.6019,-1.6019,-1.6015,-1.6012,-1.6007,-1.6005,-1.6001,-1.6002,-1.6001,-1.6,-1.5999,-1.5998,-1.6011,-1.6,-1.6,-1.6,-1.6,-1.6,0,-1.6031,-1.603,-1.6027,-1.6025,-1.6022,-1.6023,-1.6021,-1.6018,-1.6014,-1.6012,-1.6009,-1.6003,-1.5999,-1.5997,-1.5992,-1.5989,-1.5989,-1.5988,-1.5988,-1.5987,-1.5998,-1.5999,-1.5988,-1.5988,-1.5988,-1.5988,-1.5988,-1.5988,-1.6027,-1.6023,-1.6022,-1.6017,-1.6015,-1.6011,-1.6009,-1.6007,-1.6005,-1.5999,-1.5995,-1.5994,-1.5991,-1.5985,-1.5981,-1.598,-1.5978,-1.5976,-1.5975,-1.5985,-1.5986,-1.5988,-1.5989,-1.5975,-1.5975,-1.5965,-1.5964,-1.5964]}]]